Weather History for KCBM - March, 2014

Change the Weather History Date:

Monday, March 17, 2014

  Actual Average Record
Temperature  
Mean Temperature 42 °F -  
Max Temperature 45 °F 64 °F 85 °F (2012)
Min Temperature 38 °F 44 °F 37 °F (2005)
Degree Days  
Heating Degree Days 24    
Moisture  
Dew Point 35 °F    
Average Humidity 81    
Maximum Humidity 93    
Minimum Humidity 70    
Precipitation  
Precipitation 0.00 in - - ()
Sea Level Pressure  
Sea Level Pressure 29.82 in    
Wind  
Wind Speed 10 mph (NNW)    
Max Wind Speed 15 mph    
Max Gust Speed -    
Visibility 10 miles    
Events Rain    
Averages and records for this station are not official NWS values.
T = Trace of Precipitation, MM = Missing Value Source: NWS Daily Summary

Daily Weather History Graph

Daily Weather History Graph

Search for Another Location

Airport or City:

Trip Planner

Search our weather history database for the weather conditions in past years. The results will help you decide how hot, cold, wet, or windy it might be!

Date:

Astronomy

Mar. 17, 2014 Rise Set
Actual Time 7:01 AM CDT 7:03 PM CDT
Civil Twilight 6:36 AM CDT 7:27 PM CDT
Nautical Twilight 6:07 AM CDT 7:56 PM CDT
Astronomical Twilight 5:38 AM CDT 8:26 PM CDT
Moon 8:14 PM CDT (3/17) 7:20 AM CDT (3/17)
Length of Visible Light 12h 51m
Length of Day
12h 01m
Full, 99% of the Moon is Illuminated
Mar 17
Full
Mar 23
Last Quarter
Mar 30
New
Apr 7
First Quarter
Apr 15
Full

Hourly Weather History & Observations

Time (CDT) Temp. Windchill Dew Point Humidity Pressure Visibility Wind Dir Wind Speed Gust Speed Precip Events Conditions
12:58 AM 45.7 °F 40.2 °F 42.1 °F 87% 29.76 in 10.0 mi North 11.5 mph - N/A   Overcast
1:58 AM 43.9 °F 37.2 °F 39.7 °F 85% 29.79 in 10.0 mi North 13.8 mph - N/A   Overcast
2:03 AM 44.6 °F 38.1 °F 39.2 °F 81% 29.77 in 10.0 mi North 13.8 mph - N/A   Overcast
2:58 AM 41.9 °F 34.6 °F 37.4 °F 84% 29.74 in 10.0 mi North 13.8 mph - N/A   Overcast
3:11 AM 41.0 °F 33.5 °F 37.4 °F 87% 29.74 in 10.0 mi NNW 13.8 mph - N/A   Overcast
3:31 AM 41.0 °F 35.2 °F 37.4 °F 87% 29.77 in 10.0 mi North 9.2 mph - N/A   Overcast
3:46 AM 41.0 °F 34.7 °F 37.4 °F 87% 29.78 in 10.0 mi NNW 10.4 mph - N/A   Overcast
3:58 AM 41.5 °F 35.9 °F 36.9 °F 83% 29.79 in 10.0 mi NNW 9.2 mph - N/A   Overcast
4:19 AM 41.0 °F 34.7 °F 37.4 °F 87% 29.77 in 10.0 mi NNW 10.4 mph - N/A   Overcast
4:21 AM 41.0 °F 35.2 °F 37.4 °F 87% 29.78 in 10.0 mi NNW 9.2 mph - N/A   Overcast
4:58 AM 40.3 °F 34.4 °F 37.0 °F 88% 29.77 in 10.0 mi North 9.2 mph - 0.00 in Rain Light Rain
5:02 AM 41.0 °F 34.7 °F 37.4 °F 87% 29.76 in 10.0 mi North 10.4 mph - N/A   Overcast
5:58 AM 39.7 °F 31.9 °F 36.0 °F 86% 29.80 in 10.0 mi North 13.8 mph - 0.00 in   Overcast
6:03 AM 39.2 °F 30.8 °F 35.6 °F 87% 29.80 in 10.0 mi North 15.0 mph - N/A   Overcast
6:58 AM 39.6 °F 33.5 °F 36.3 °F 88% 29.83 in 10.0 mi NNW 9.2 mph - N/A   Overcast
7:18 AM 39.2 °F 32.5 °F 35.6 °F 87% 29.81 in 10.0 mi NNW 10.4 mph - N/A   Overcast
7:28 AM 39.2 °F 31.6 °F 37.4 °F 93% 29.81 in 10.0 mi NNW 12.7 mph - N/A   Overcast
7:44 AM 39.2 °F 32.0 °F 35.6 °F 87% 29.83 in 10.0 mi NNW 11.5 mph - N/A   Overcast
7:58 AM 38.7 °F 31.8 °F 36.3 °F 91% 29.84 in 10.0 mi NNW 10.4 mph - 0.00 in   Light Drizzle
8:03 AM 39.2 °F 32.0 °F 35.6 °F 87% 29.83 in 10.0 mi NNW 11.5 mph - N/A   Light Drizzle
8:05 AM 39.2 °F 32.5 °F 35.6 °F 87% 29.83 in 10.0 mi NNW 10.4 mph - N/A   Overcast
8:40 AM 39.2 °F 32.5 °F 35.6 °F 87% 29.83 in 10.0 mi NW 10.4 mph - N/A   Overcast
8:58 AM 38.5 °F 31.6 °F 35.4 °F 89% 29.83 in 10.0 mi NNW 10.4 mph - 0.00 in   Overcast
9:58 AM 38.7 °F 30.1 °F 34.3 °F 84% 29.84 in 10.0 mi NNW 15.0 mph - N/A   Overcast
10:58 AM 39.0 °F 31.8 °F 33.8 °F 82% 29.84 in 10.0 mi North 11.5 mph - N/A   Overcast
11:13 AM 39.2 °F 32.0 °F 33.8 °F 81% 29.83 in 10.0 mi North 11.5 mph - N/A   Overcast
11:23 AM 39.2 °F 32.5 °F 32.0 °F 75% 29.84 in 10.0 mi NNE 10.4 mph - N/A   Overcast
11:58 AM 39.6 °F 33.0 °F 33.6 °F 79% 29.86 in 10.0 mi North 10.4 mph - N/A   Overcast
12:58 PM 39.7 °F 32.7 °F 33.4 °F 78% 29.83 in 10.0 mi NNW 11.5 mph - N/A   Overcast
1:34 PM 39.2 °F 32.5 °F 33.8 °F 81% 29.81 in 10.0 mi NW 10.4 mph - N/A   Overcast
1:58 PM 39.2 °F 32.5 °F 33.8 °F 81% 29.82 in 10.0 mi NNW 10.4 mph - N/A   Overcast
2:58 PM 38.8 °F 31.6 °F 33.3 °F 80% 29.81 in 10.0 mi NNW 11.5 mph - N/A   Overcast
3:18 PM 39.2 °F 33.6 °F 32.0 °F 75% 29.79 in 10.0 mi NNW 8.1 mph - N/A   Overcast
3:58 PM 39.6 °F 34.0 °F 32.7 °F 76% 29.81 in 10.0 mi NNW 8.1 mph - N/A   Overcast
4:13 PM 39.2 °F 35.9 °F 32.0 °F 75% 29.79 in 10.0 mi NNW 4.6 mph - N/A   Overcast
4:58 PM 40.1 °F 36.9 °F 32.4 °F 74% 29.81 in 10.0 mi NW 4.6 mph - N/A   Overcast
5:58 PM 40.5 °F 35.8 °F 32.9 °F 74% 29.83 in 10.0 mi NW 6.9 mph - N/A   Overcast
6:48 PM 41.0 °F 36.4 °F 32.0 °F 70% 29.84 in 10.0 mi WNW 6.9 mph - N/A   Overcast
6:53 PM 41.0 °F 36.4 °F 32.0 °F 70% 29.84 in 10.0 mi WNW 6.9 mph - N/A   Overcast
6:58 PM 40.5 °F 35.8 °F 32.5 °F 73% 29.86 in 10.0 mi WNW 6.9 mph - N/A   Overcast
7:03 PM 41.0 °F 36.4 °F 32.0 °F 70% 29.84 in 10.0 mi NW 6.9 mph - N/A   Overcast
7:58 PM 40.6 °F - 32.5 °F 73% 29.86 in 10.0 mi NNW 2.3 mph - N/A   Overcast
8:03 PM 41.0 °F - 32.0 °F 70% 29.84 in 10.0 mi NW 2.3 mph - N/A   Overcast
8:18 PM 41.0 °F - 32.0 °F 70% 29.85 in 10.0 mi Calm Calm - N/A   Overcast
8:38 PM 41.0 °F - 32.0 °F 70% 29.86 in 10.0 mi WNW 2.3 mph - N/A   Overcast
8:58 PM 40.6 °F 38.6 °F 33.4 °F 75% 29.88 in 10.0 mi West 3.5 mph - N/A   Overcast
9:58 PM 40.8 °F 38.8 °F 34.0 °F 77% 29.91 in 10.0 mi West 3.5 mph - N/A   Overcast
10:58 PM 40.8 °F - 34.9 °F 79% 29.89 in 10.0 mi SW 2.3 mph - N/A   Overcast
11:53 PM 41.0 °F 39.0 °F 35.6 °F 81% 29.89 in 10.0 mi West 3.5 mph - N/A   Overcast
11:58 PM 40.8 °F 37.8 °F 34.5 °F 78% 29.91 in 10.0 mi West 4.6 mph - N/A   Overcast